Location: The Saddle
(36.8333°N, 80.3417°W)
Time: 07:28:46
(UTC-05:00)

Vanguard 2 Rocket - Pass Details

Date: 10 December 2023
Orbit: 555 x 3309 km, 32.9° (Epoch: 02 March)

Event Time Altitude Azimuth Distance (km) Brightness Sun altitude
Rises 11:36:00 0° 215° (SW) 4,756 11.2 29.6°
Reaches altitude 10° 11:38:56 10° 208° (SSW) 4,098 11.1 29.7°
Maximum altitude 11:49:46 41° 142° (SE) 3,261 11.1 30.0°
Drops below altitude 10° 12:06:07 10° 81° (E) 6,113 11.1 30.2°
Sets 12:11:38 0° 76° (ENE) 7,269 11.4 30.2°
